Find Starlink 34263

NORAD ID: 64164 Int'l Des: 2025-112 Owner: SPXS Country: US Constellation: starlink operational
LEOCIRCULARRETROGRADESSO

現在のビュー

3D地球を読み込み中...

About Starlink 34263

Starlink 34263 (NORAD 64164) is a starlink constellation satellite (v2 mini) launched May 27, 2025 by SPXS of US. It operates in LEO, CIRCULAR, RETROGRADE, SSO orbit with a mass of 575.00 kg.

次回通過

Passes for default location (London). Set your location on the main map for personalized predictions.

高度履歴

Loading altitude history...

軌道要素

1 64164U 25112U 26263.86709748 .00018962 00000-0 58800-3 0 9990
2 64164 97.2847 310.9232 0000242 219.4090 140.7135 15.33457111 72802
Epoch: Sep 20, 2026 • Age: 7 hours

現在のステータス

高度 479.4 km
遠地点 / 近地点 N/A
速度 7.62 km/s
衛星直下点 -36.93°S, 65.41°E
打ち上げ日 May 27, 2025
運用期間 1.3 years
タイプ internet

技術仕様

分類 Payload
質量 575.00 kg
乾燥質量 530.00 kg
長さ 0.30 m
スパン 29.00 m
形状 ? Box + pan
製造者 SPXS
バスタイプ Starlink V2MO
フェーズステータス In Orbit
所有者/国 SPXS/US

Most Searched